Theta_e
299 297 299 298 298 299 300 300 300 296 295 295 295 294 294 294 295 294 294 293 292 291 292 291 291 290 289 288 288 287 287 287 288 288 288 287 286 286 285 285 285 285 285 285
296 298 293 295 297 299 299 299 298 295 295 294 293 292 292 293 295 294 294 294 293 292 289 290 290 289 289 288 287 287 287 287 288 288 287 287 286 286 285 285 284 284 284 284
295 292 292 295 295 296 293 296 295 296 294 294 293 293 299 297 296 294 294 294 294 292 289 288 289 289 289 288 287 287 287 287 287 287 287 286 286 286 285 285 284 284 284 284
290 291 293 294 292 293 296 292 293 295 293 295 293 292 294 297 296 295 295 293 293 292 289 289 288 289 289 288 287 287 286 286 286 286 287 287 287 286 285 285 285 284 284 284
291 291 292 294 292 291 294 292 294 294 294 293 294 292 293 294 296 296 296 294 291 291 289 288 288 289 289 289 288 287 287 286 286 287 287 287 287 285 285 285 285 284 284 283
288 289 289 290 290 292 291 293 294 293 293 292 295 292 292 294 296 296 294 293 292 291 290 289 289 290 290 289 288 287 287 286 286 287 287 287 286 286 285 285 285 285 284 284
290 289 288 289 291 291 293 296 298 296 294 294 294 292 292 297 295 295 295 294 293 293 290 287 288 289 289 289 288 287 287 286 286 286 287 287 286 286 286 285 285 285 284 284
292 291 288 288 290 291 292 294 296 292 303 298 292 293 295 296 294 294 293 293 294 293 291 288 289 289 289 289 288 288 287 287 286 286 286 286 286 286 286 285 285 285 284 284
292 292 287 287 288 289 292 291 294 289 288 289 292 294 295 296 295 293 293 293 293 293 291 290 290 290 290 289 289 288 288 287 286 286 286 286 286 286 286 285 285 285 284 284
295 289 288 287 288 289 291 291 291 291 289 290 298 293 293 294 294 293 293 292 292 293 293 290 291 290 290 290 289 289 288 288 287 286 286 286 286 286 286 286 285 285 285 284
288 290 288 287 286 289 288 290 291 292 295 296 294 295 292 293 292 292 291 291 291 291 290 289 291 291 290 290 289 289 288 288 287 287 286 286 286 286 286 286 285 285 285 285
291 289 286 288 286 286 287 291 292 293 292 291 293 292 294 293 291 290 290 290 290 290 289 289 291 291 291 290 290 289 289 288 288 287 287 286 286 286 286 286 285 285 285 285
290 288 286 292 289 286 284 289 293 291 291 289 290 291 293 292 291 290 289 289 289 289 288 288 290 291 291 290 290 290 289 289 288 288 287 286 286 286 286 286 286 285 285 285
293 286 290 295 294 286 285 287 291 288 287 292 294 294 291 290 290 289 289 288 288 288 288 288 288 289 290 290 290 290 289 289 289 288 288 287 287 286 286 286 286 285 285 285
288 289 285 286 291 288 286 285 289 290 290 292 294 295 293 290 289 289 288 288 289 289 287 287 287 288 289 290 290 289 290 289 289 288 288 288 287 287 287 286 286 285 285 284
281 284 281 284 289 290 288 287 286 291 292 291 292 292 290 286 289 288 287 287 287 287 287 286 287 289 288 288 289 289 289 289 289 288 288 288 287 287 286 286 285 284 284 284
285 282 285 286 288 288 289 286 288 288 284 290 290 291 290 288 288 287 286 286 287 286 286 286 285 286 287 288 288 288 288 288 288 287 286 286 286 286 285 285 284 284 283 283
282 283 283 284 283 289 292 287 287 290 289 288 287 288 287 287 285 284 285 285 285 285 284 282 280 281 283 285 286 286 286 285 284 284 283 283 283 283 283 283 283 282 282 281
283 285 285 288 281 289 289 287 286 287 289 289 289 290 285 283 281 282 283 283 282 281 279 278 278 278 280 281 282 283 282 281 280 278 278 279 279 279 280 280 279 279 279 279
284 283 287 284 289 289 287 286 284 284 292 284 289 289 287 284 288 283 279 280 279 278 277 275 275 276 277 277 278 279 275 275 273 273 274 275 276 276 276 276 276 276 276 277
281 280 288 284 285 285 286 285 283 290 293 283 286 286 286 288 282 280 278 277 276 276 274 273 272 271 272 273 274 272 271 269 270 271 272 273 273 274 273 274 274 274 275 275
284 285 283 281 284 289 284 285 288 287 281 283 282 282 283 281 280 278 276 275 274 274 273 271 270 268 269 271 271 269 268 267 268 269 270 271 271 271 271 271 271 271 272 272
289 286 285 289 289 282 284 286 282 280 281 283 282 282 282 280 278 276 274 272 271 272 272 270 268 266 266 267 268 266 264 266 267 267 268 268 268 268 268 268 269 269 269 270
282 279 285 287 282 283 284 283 281 281 280 280 280 280 280 278 277 275 273 272 271 270 269 269 267 265 264 264 264 264 264 264 265 266 265 266 266 266 267 267 267 267 268 268
284 284 283 285 285 286 285 284 281 278 277 277 276 277 277 277 276 275 273 272 270 268 267 266 266 264 263 262 262 262 263 263 264 264 264 264 264 264 264 264 264 265 266 267
282 283 288 289 288 287 285 282 279 278 277 275 275 274 274 274 273 271 270 269 267 266 265 264 263 262 261 261 261 261 261 261 262 262 262 262 262 262 262 262 262 263 264 266
Wind_Speed
2 5 4 3 1 2 0 4 4 2 0 0 3 8 13 8 7 8 8 8 9 10 17 23 21 18 14 12 9 9 8 9 8 7 8 7 10 11 14 15 15 17 17 18
5 4 1 1 3 3 3 2 2 2 1 1 4 11 9 4 6 8 10 9 9 7 8 19 23 20 16 14 12 10 9 10 9 10 8 6 9 11 11 12 14 16 16 18
5 2 2 1 5 5 4 4 2 2 2 2 4 7 4 3 2 5 5 6 5 10 12 12 22 21 17 15 14 13 10 10 9 9 10 11 11 9 7 9 12 14 15 16
6 2 2 4 4 1 4 1 2 3 3 2 2 3 4 1 3 5 6 7 8 8 7 15 20 23 20 17 14 12 11 10 10 12 9 5 8 7 7 7 9 11 13 14
2 2 3 3 2 2 3 1 3 1 2 3 2 3 6 4 3 2 3 5 7 8 12 14 22 28 23 20 19 15 13 11 11 10 8 8 10 9 7 7 7 8 9 12
3 0 3 2 2 2 4 3 3 3 3 3 3 4 5 5 6 5 4 3 3 6 8 17 23 27 26 23 22 20 17 14 13 12 12 10 10 10 9 6 5 5 5 7
1 2 1 2 4 4 2 4 3 4 3 4 1 2 8 4 4 5 4 3 1 3 6 10 19 23 28 28 27 23 20 19 16 15 14 12 11 10 9 8 6 5 3 3
6 3 4 1 1 5 4 5 4 7 3 2 4 5 6 4 4 3 4 4 2 2 3 9 18 24 30 31 30 27 25 23 20 18 17 14 13 12 10 8 7 5 3 0
5 2 0 3 2 2 4 3 4 6 2 4 3 6 6 3 4 4 5 4 2 1 2 7 18 28 32 34 34 31 28 26 24 23 20 18 15 14 12 9 7 5 4 2
6 5 2 1 0 0 3 2 3 3 3 4 4 4 5 7 9 7 6 6 5 2 2 5 16 28 33 35 35 32 29 28 27 24 23 21 19 16 13 10 8 7 5 5
4 4 1 3 5 7 1 1 1 3 4 5 2 6 7 11 10 12 9 8 7 6 5 6 10 20 29 31 32 32 29 28 27 26 25 23 21 19 16 14 11 9 8 7
4 5 4 5 1 1 2 5 5 4 6 2 3 6 3 6 9 10 9 8 8 7 7 6 8 8 17 27 29 31 30 28 27 27 25 24 22 19 18 15 13 11 10 9
6 1 3 5 3 3 4 6 3 4 3 5 6 5 2 5 8 8 10 8 7 5 6 4 5 6 8 22 29 31 30 30 27 27 27 26 23 23 21 18 15 14 12 10
2 3 6 8 6 5 5 5 7 6 4 5 8 3 5 8 8 8 8 8 7 5 2 3 3 6 6 9 23 29 30 29 28 28 27 26 27 25 22 19 17 16 13 12
4 6 3 2 3 4 5 5 12 10 8 7 6 17 10 9 9 9 8 6 6 5 5 2 2 3 5 5 11 22 25 27 27 27 27 27 24 22 21 20 19 16 15 14
2 2 2 3 2 2 4 5 8 16 12 14 13 18 7 3 5 6 7 7 6 5 2 1 2 1 2 3 6 14 18 22 23 23 23 21 20 20 20 19 17 16 15 14
6 6 3 4 1 2 9 12 17 9 6 12 13 15 5 4 7 7 6 6 5 5 4 5 6 8 5 2 5 10 11 14 15 15 13 13 13 14 14 14 13 13 12 13
6 5 2 3 2 3 5 1 8 18 6 17 8 5 6 6 7 6 3 6 7 6 6 8 12 17 15 12 10 11 10 11 11 11 9 7 6 7 6 7 8 9 10 12
2 4 2 5 4 7 4 6 9 10 12 21 21 22 4 5 4 3 3 6 6 7 11 14 15 17 18 17 15 18 18 17 15 12 9 6 3 1 3 5 7 10 12 14
2 4 3 3 6 11 5 3 5 5 12 6 19 17 11 8 6 4 4 9 12 15 13 13 13 15 18 14 12 17 17 15 14 10 8 6 5 5 7 8 10 12 14 16
3 1 7 4 4 9 5 6 5 6 6 1 4 5 12 9 3 9 11 12 16 14 13 13 16 17 14 12 11 17 15 17 11 9 8 8 8 8 8 10 12 14 16 17
9 10 4 3 1 13 6 5 10 4 2 1 2 3 8 14 13 12 12 11 14 14 14 12 16 15 16 13 11 14 16 11 10 9 9 9 9 9 10 12 13 15 16 18
4 7 7 10 7 3 9 2 2 4 4 2 5 7 15 15 11 10 9 10 13 13 12 13 15 17 16 15 13 12 12 11 10 10 10 11 11 12 12 14 14 15 15 16
4 3 3 3 3 3 6 2 3 3 6 8 6 7 9 14 12 13 12 12 13 12 13 13 13 15 15 12 11 11 10 10 10 11 12 13 13 14 14 13 13 14 15 18
3 9 6 2 1 3 3 4 8 10 10 11 10 9 9 13 11 11 10 13 13 12 11 12 11 10 9 7 9 10 10 11 12 12 13 14 14 15 15 14 14 14 15 14
4 6 5 5 6 4 1 11 12 12 11 9 13 11 13 15 12 16 13 13 13 11 9 9 9 8 7 7 8 9 10 12 13 12 13 15 15 16 15 18 22 16 12 14
Wind_Direction
26 89 184 170 118 124 139 128 129 107 352 335 247 270 271 240 197 206 222 207 199 191 192 177 169 172 172 172 173 169 161 136 125 139 123 100 80 68 62 58 59 58 55 54
45 152 284 19 47 86 71 114 91 83 136 63 334 296 283 194 207 193 203 216 204 178 160 169 171 173 180 177 176 172 171 165 163 157 137 121 105 84 69 58 59 56 54 54
137 152 324 89 56 100 53 131 117 147 357 276 330 317 334 10 141 186 207 210 201 180 170 169 171 178 179 185 184 179 179 174 173 162 144 126 120 110 76 63 61 55 53 54
84 299 104 98 91 39 154 133 114 90 75 192 116 253 305 187 67 64 176 201 218 174 164 168 171 182 186 192 190 192 190 183 166 152 151 167 159 133 103 79 69 60 52 52
154 64 75 96 103 3 140 80 98 86 98 74 307 97 266 146 96 126 196 217 229 216 169 175 181 185 189 188 191 198 200 193 179 171 164 153 141 130 121 101 80 62 54 47
98 43 60 112 95 35 133 89 51 52 83 39 233 141 272 197 182 172 140 62 26 355 181 177 181 184 186 188 190 196 200 198 192 181 171 171 158 148 144 140 114 89 62 46
41 16 29 89 92 4 80 91 20 359 10 217 291 74 238 212 212 182 181 169 24 339 154 158 167 177 184 186 188 194 197 199 202 193 186 181 173 168 164 158 154 149 137 45
152 247 172 339 73 169 176 151 156 193 189 210 5 228 259 216 158 124 121 132 99 28 171 172 178 179 185 190 190 195 198 201 203 200 194 189 187 183 181 176 172 173 182 134
130 74 25 58 13 75 195 187 143 103 46 57 218 276 318 183 175 115 121 117 123 37 46 178 184 186 189 192 194 197 203 205 204 204 199 197 197 195 193 188 195 197 210 234
188 87 15 337 344 336 149 229 95 359 127 253 276 268 225 213 204 168 164 171 180 186 205 199 192 196 197 198 200 202 208 209 211 211 206 204 201 202 201 202 204 214 226 244
137 99 238 45 209 171 132 186 39 124 148 169 198 258 215 205 179 177 179 177 174 186 213 240 235 214 205 204 202 204 207 209 211 214 214 211 208 206 208 210 216 222 234 248
205 117 143 212 179 346 194 204 170 135 226 214 153 271 278 194 175 158 177 180 181 181 218 238 252 242 216 209 205 205 208 212 217 218 218 218 216 213 218 218 223 230 233 246
194 270 74 354 350 353 212 195 191 129 96 202 145 254 160 125 141 185 176 193 195 209 224 227 236 244 232 215 208 207 208 212 217 218 218 219 218 218 221 224 227 233 238 248
126 111 160 188 190 130 189 209 179 137 133 182 220 230 210 209 195 198 197 192 185 184 183 214 242 248 255 233 214 208 206 211 212 213 218 222 220 224 228 231 234 237 245 253
127 189 136 264 157 125 180 173 188 198 192 183 204 224 217 210 196 200 190 170 157 142 117 104 251 276 278 262 217 209 204 206 211 212 214 223 229 231 233 235 238 241 245 257
359 208 104 329 227 195 264 218 203 220 231 259 263 267 214 227 141 122 147 150 157 145 141 50 359 3 306 276 221 200 197 200 204 210 220 223 227 234 237 239 241 243 251 260
142 137 117 254 60 118 293 200 194 197 200 205 220 240 140 145 176 164 156 139 126 103 70 36 30 52 49 88 180 175 183 187 195 204 218 227 235 235 234 238 241 248 258 268
139 117 96 160 28 245 248 213 197 208 221 219 262 238 192 170 126 114 102 137 117 109 85 61 61 64 64 81 105 129 132 136 141 127 128 145 166 182 193 215 235 252 265 274
72 131 130 152 201 307 228 190 159 173 250 215 220 231 170 118 76 1 57 91 92 87 89 87 85 76 75 77 94 110 104 108 102 86 74 61 49 336 292 293 291 296 296 293
62 61 127 138 179 213 242 179 148 120 274 230 206 217 165 144 189 201 149 102 86 89 94 89 84 80 76 64 89 96 85 82 65 50 44 30 11 356 339 328 320 316 314 312
127 57 199 183 224 282 219 166 138 130 251 263 175 154 158 185 228 130 114 90 84 96 90 88 78 66 62 66 82 80 71 55 40 37 25 17 6 359 347 337 332 328 326 322
158 156 181 106 153 262 160 79 170 189 352 109 79 111 110 121 114 108 104 101 95 88 90 87 81 68 64 73 77 73 58 36 31 28 19 16 8 4 348 343 339 337 338 336
202 183 177 188 208 219 185 57 133 141 132 95 92 104 129 125 122 116 114 102 96 98 98 98 95 82 66 61 63 64 37 23 22 22 22 15 9 1 356 350 347 345 344 344
258 181 167 115 277 215 155 61 62 81 104 96 79 100 113 121 123 122 124 123 110 97 85 101 93 79 69 58 56 51 30 22 22 24 19 9 5 0 357 357 354 347 343 337
189 145 158 271 175 100 172 159 134 108 104 93 72 78 108 118 122 123 117 113 109 101 90 93 93 91 81 63 44 33 24 18 19 18 11 8 2 359 354 349 344 333 325 324
192 166 174 211 175 141 120 141 137 130 125 117 109 90 81 110 117 114 109 112 114 108 106 94 89 92 74 51 38 29 22 15 11 8 2 358 353 353 348 340 334 333 323 321